User: anonymous   Login
Location: Warszawa
(52.2500°N, 21.0000°E)
Time: 14:26:41
(UTC+02:00)
Language:

AO-27 - Orbit

View from above orbital plane
View from above orbital plane
View from above satellite
View from above satellite

Ground track
Ground track

The orbit data is extracted from the following two-line orbital elements,

1 22825U 93061C   24104.13803361  .00000137  00000-0  69971-4 0  9991
2 22825  98.7957 156.2148 0007310 268.4964  91.5381 14.30455327593584
Epoch (UTC): 13 April 2024 03:18:46
Eccentricity: 0.0007310
inclination: 98.7957°
perigee height: 785 km
apogee height: 795 km
right ascension of ascending node: 156.2148°
argument of perigee: 268.4964°
revolutions per day: 14.30455327
mean anomaly at epoch: 91.5381°
orbit number at epoch: 59358

The dashed part of the orbit path shows where the satellite is in the earth's shadow,  

DLR